[[{"header":{"parameterUnit":"m.s-1","parameterCategory":1,"la1":30.2991,"la2":30.254,"lo1":-89.0895,"lo2":-89.0444,"dy":0.0017,"dx":0.0017,"nx":28,"ny":28,"refTime":"2023-10-18T21:00:00:Z","depth":0,"parameterNumber":2,"parameterNumberName":"U-component_of_WINDS"},"data":[0,0,0,0,0,0,0,0,0,0,0,0,0,0,0,0,0,0,0,0,0,0,0,0,0,0,0,0,0,0,0,0,0,0,0,0,0,0,0,0,0,0,0,0,0,0,0,0,0,0,0,0,0,0,0,0,0,0,4.9404,4.9406,0,4.9608,4.961,4.9612,4.9579,4.9575,4.9572,4.9568,4.9778,4.9786,4.9795,0,0,0,0,0,0,0,0,0,0,0,0,0,4.8985,4.8993,4.9404,4.9406,4.9409,4.9607,4.961,4.9613,4.9579,4.9575,4.9571,4.9567,4.9775,4.9785,4.9796,0,0,0,0,0,0,0,0,0,0,0,0,0,4.9175,4.8995,4.9403,4.9416,4.9419,4.9607,4.961,4.9614,4.958,4.9575,4.957,4.9565,4.9771,4.9784,4.9797,4.9985,0,0,4.9838,4.9843,0,0,0,0,0,0,0,0,4.9165,4.9191,4.9412,4.9415,4.9419,4.9562,4.9539,4.9738,4.9582,4.9519,4.9568,4.9562,4.971,4.9728,4.9778,4.9995,5.0004,4.9839,4.9847,4.9853,4.9856,0,0,0,0,0,0,0,4.9151,4.9182,4.9484,4.9415,4.942,4.9411,4.9433,4.9577,4.9642,4.9524,4.9522,4.9547,4.9711,4.9765,4.9783,5.0007,4.9839,4.985,4.9859,4.9864,5.0387,5.0393,0,0,0,0,0,0,4.9135,4.9171,4.9478,4.949,4.9276,4.9423,4.9447,4.9522,4.964,4.9653,4.9551,4.9545,4.9745,4.9767,4.979,5.0017,4.9853,4.9865,4.9873,5.0381,5.0389,5.0395,0,0,0,0,0,0,4.9126,4.9162,4.947,4.933,4.9369,4.9436,4.952,4.9529,4.9583,4.9661,4.9672,4.9594,4.9742,4.9771,4.9937,5.0024,4.9871,4.9883,5.0374,5.0384,5.0392,5.0474,0,0,0,0,0,0,4.9114,4.9159,4.9232,4.9332,4.9376,4.9613,4.9526,4.9536,4.9606,4.9599,4.9704,4.9717,4.974,4.9917,4.995,5.004,4.9893,5.0367,5.0378,5.0389,5.0463,5.0484,5.0502,0,0,0,0,0,4.9099,4.9247,4.9235,4.9273,4.9468,4.9618,4.9644,4.9668,4.9613,4.9686,4.9736,4.9713,5.0009,4.9934,4.9971,5.0066,5.0361,5.0375,5.0388,5.0455,5.048,5.0502,0,0,0,0,0,0,4.9155,4.926,4.9249,4.9433,4.9517,4.9612,4.9705,4.9694,4.9795,4.9784,4.981,4.9834,5.0002,5.005,4.9965,5.0254,5.0178,5.0199,5.0216,5.024,5.0259,5.0244,4.9904,0,0,0,0,0,4.9188,4.9302,4.9388,4.9542,4.9585,4.9638,4.9704,4.9715,4.9803,4.9839,4.9901,4.9987,5.0099,5.0172,5.028,5.047,5.0492,5.0554,5.0573,5.0588,5.0606,5.071,5.0738,5.0439,5.0439,5.0438,0,0,4.9259,4.9331,4.9401,4.9555,4.9621,4.9738,4.9668,4.9794,4.9881,4.9858,5.0017,5.0066,5.0164,5.0342,5.0424,5.0388,5.0694,5.0605,5.0617,5.0627,5.0727,5.0755,5.078,5.0448,5.0446,5.0445,0,0,4.9448,4.9514,4.9649,4.9717,4.9818,4.9852,4.9885,4.9982,5.0014,5.0174,5.0159,5.0262,5.0455,5.0525,5.0586,5.0801,5.0784,5.0835,5.0936,5.1037,5.106,5.1081,5.1157,5.1184,5.0853,5.0853,5.0854,0,4.9523,4.9698,4.9721,4.9849,4.9917,4.9901,5.0038,5.0103,5.0234,5.0281,5.0239,5.0481,5.0545,5.074,5.0792,5.0842,5.088,5.0823,5.1055,5.1077,5.1096,5.1169,5.1198,5.0859,5.0858,5.0858,5.0857,0,4.9785,4.9907,5.0005,5.0131,5.0211,5.0343,5.0385,5.0462,5.0466,5.0505,5.0669,5.0746,5.0868,5.0915,5.0921,5.1111,5.1085,5.1049,5.0973,5.113,5.1199,5.1227,5.0867,5.0865,5.0863,5.0862,0,0,5.0015,5.0152,5.0188,5.0245,5.0355,5.0449,5.058,5.07,5.0766,5.0857,5.0967,5.113,5.1098,5.1167,5.118,5.1268,5.1433,5.1221,5.1224,5.1258,5.1646,5.1672,5.1704,5.1422,5.1427,5.1432,5.1637,0,5.0214,5.0446,5.0469,5.0676,5.0789,5.0775,5.0889,5.0969,5.1008,5.1109,5.1153,5.1268,5.1216,5.1258,5.1345,5.1394,5.1511,5.138,5.1525,5.1529,5.15,5.174,5.1768,5.1958,5.1664,5.1669,5.1672,0,5.0477,5.0575,5.0793,5.0887,5.0935,5.1037,5.1149,5.1245,5.1335,5.1358,5.1435,5.1436,5.1571,5.149,5.1676,5.1586,5.1647,5.168,5.1688,5.1702,5.161,5.176,5.202,5.2048,5.1715,5.1712,5.1709,0,5.0622,5.0808,5.0963,5.1012,5.1126,5.1198,5.1249,5.1333,5.1404,5.1501,5.1547,5.1658,5.172,5.1806,5.1838,5.1776,5.2022,5.1944,5.2044,5.2043,5.2096,5.2092,5.2369,5.2136,5.2136,5.2135,5.2135,0,5.0841,5.0975,5.103,5.1125,5.1274,5.13,5.1447,5.1494,5.157,5.1673,5.1668,5.1766,5.1801,5.1905,5.193,5.208,5.2108,5.2129,5.2134,5.213,5.2127,5.2169,5.2157,5.2143,5.2141,5.214,5.2138,0,5.1028,5.107,5.1238,5.1331,5.1358,5.1464,5.1544,5.1635,5.1673,5.1804,5.1837,5.1896,5.2017,5.2057,5.2204,5.2221,5.2395,5.2389,5.2365,5.2366,5.2463,5.2453,5.2776,5.282,5.2559,5.2562,5.2564,0,5.1165,5.1268,5.1372,5.1441,5.1494,5.1606,5.1677,5.1707,5.1781,5.1891,5.1969,5.2089,5.2187,5.2381,5.2437,5.2549,5.2546,5.2651,5.2562,5.2554,5.2546,5.254,5.255,5.2667,5.267,5.2672,5.2674,0,5.1403,5.1419,5.1522,5.1633,5.1719,5.1807,5.1893,5.195,5.1992,5.2076,5.2199,5.2275,5.2424,5.2544,5.2658,5.2709,5.2699,5.2702,5.2731,5.2727,5.2708,5.2719,5.241,5.2694,5.2692,5.2691,5.269,5.2689,5.157,5.166,5.1747,5.1862,5.193,5.201,5.21,5.2149,5.2253,5.2376,5.2387,5.2521,5.2607,5.2759,5.2817,5.2921,5.2891,5.2934,5.2944,5.2954,5.2961,5.2692,5.2942,5.2942,5.2941,5.2941,5.294,0,5.1807,5.1862,5.1968,5.2088,5.2178,5.216,5.2254,5.2331,5.2448,5.253,5.2626,5.2767,5.2883,5.2948,5.3063,5.3134,5.3132,5.3163,5.3158,5.317,5.2982,5.2945,5.3163,5.3163,5.3163,5.3163,5.3163,5.3163,5.1941,5.2093,5.2119,5.2303,5.2358,5.2488,5.2543,5.2616,5.2682,5.284,5.2936,5.2977,5.3052,5.3173,5.3278,5.3294,5.3336,5.337,5.3383,5.3206,5.3183,5.3162,5.3127,5.3379,5.338,5.3563,5.3564,5.3566]},{"header":{"parameterUnit":"m.s-1","parameterCategory":1,"la1":30.2991,"la2":30.254,"lo1":-89.0895,"lo2":-89.0444,"dy":0.0017,"dx":0.0017,"nx":28,"ny":28,"refTime":"2023-10-18T21:00:00:Z","depth":0,"parameterNumber":3,"parameterNumberName":"V-component_of_WINDS"},"data":[0,0,0,0,0,0,0,0,0,0,0,0,0,0,0,0,0,0,0,0,0,0,0,0,0,0,0,0,0,0,0,0,0,0,0,0,0,0,0,0,0,0,0,0,0,0,0,0,0,0,0,0,0,0,0,0,0,0,0.4525,0.4527,0,0.4647,0.4648,0.465,0.4689,0.4688,0.4688,0.4687,0.4816,0.482,0.4824,0,0,0,0,0,0,0,0,0,0,0,0,0,0.433,0.4334,0.4525,0.4527,0.4528,0.4647,0.4648,0.465,0.4689,0.4688,0.4687,0.4687,0.4815,0.482,0.4824,0,0,0,0,0,0,0,0,0,0,0,0,0,0.443,0.4335,0.4525,0.4562,0.4566,0.4646,0.4648,0.4651,0.4689,0.4688,0.4687,0.4686,0.4813,0.4819,0.4825,0.4879,0,0,0.4843,0.4846,0,0,0,0,0,0,0,0,0.4424,0.4437,0.4555,0.4559,0.4564,0.4652,0.4627,0.4727,0.4689,0.4642,0.4687,0.4686,0.4762,0.4773,0.4797,0.4885,0.489,0.4844,0.4847,0.485,0.4852,0,0,0,0,0,0,0,0.4417,0.4432,0.4574,0.4556,0.4562,0.4573,0.4587,0.4646,0.4706,0.4646,0.465,0.4663,0.4765,0.4792,0.4801,0.4892,0.4844,0.4849,0.4853,0.4855,0.503,0.5031,0,0,0,0,0,0,0.4404,0.4426,0.457,0.4577,0.4491,0.4578,0.4592,0.4625,0.4705,0.4717,0.4664,0.4665,0.4782,0.4794,0.4805,0.4874,0.485,0.4855,0.4859,0.5029,0.503,0.5032,0,0,0,0,0,0,0.4399,0.4416,0.4565,0.4502,0.4522,0.4582,0.4618,0.4627,0.4654,0.4718,0.473,0.468,0.4782,0.4797,0.486,0.4879,0.4858,0.4864,0.5028,0.503,0.5031,0.5011,0,0,0,0,0,0,0.4393,0.4414,0.4434,0.4503,0.4525,0.4616,0.4619,0.463,0.4664,0.4666,0.4736,0.4747,0.4782,0.4851,0.4866,0.4887,0.4868,0.5026,0.5029,0.5031,0.501,0.5012,0.5013,0,0,0,0,0,0.4386,0.4425,0.4435,0.4452,0.4552,0.4617,0.463,0.4668,0.4665,0.4687,0.4728,0.4745,0.4874,0.4857,0.4874,0.4897,0.5025,0.5028,0.503,0.501,0.5011,0.5013,0,0,0,0,0,0,0.4359,0.4435,0.4447,0.4508,0.4556,0.4623,0.4652,0.4669,0.472,0.472,0.4766,0.4782,0.4841,0.4876,0.4855,0.4953,0.4951,0.4957,0.4929,0.4931,0.4933,0.4924,0.4873,0,0,0,0,0,0.436,0.4405,0.4469,0.4518,0.4541,0.4592,0.4622,0.4647,0.4699,0.4719,0.4765,0.4816,0.4868,0.4901,0.4953,0.5015,0.5031,0.5039,0.5041,0.5041,0.5046,0.5082,0.5086,0.504,0.504,0.504,0,0,0.4363,0.441,0.4436,0.4513,0.4553,0.46,0.4609,0.4658,0.4694,0.4728,0.4789,0.4825,0.4884,0.4947,0.4977,0.4977,0.5063,0.5045,0.5045,0.505,0.5085,0.5089,0.5093,0.5041,0.5041,0.5041,0,0,0.4393,0.4432,0.4477,0.4516,0.4575,0.4609,0.4619,0.4684,0.4708,0.4771,0.4796,0.484,0.4929,0.497,0.5003,0.5047,0.5065,0.5062,0.507,0.5104,0.5108,0.5111,0.5127,0.5133,0.5067,0.5067,0.5067,0,0.4389,0.446,0.4498,0.4546,0.4579,0.4609,0.4655,0.4692,0.4766,0.4789,0.4788,0.4899,0.4941,0.5014,0.5024,0.505,0.5064,0.5055,0.5104,0.5108,0.5112,0.5128,0.5133,0.5066,0.5066,0.5066,0.5066,0,0.4453,0.4502,0.4531,0.4599,0.4636,0.4683,0.4729,0.4762,0.4783,0.4817,0.488,0.4932,0.4994,0.5013,0.5035,0.5089,0.5088,0.5094,0.5093,0.5115,0.5131,0.5137,0.5065,0.5065,0.5066,0.5066,0,0,0.4471,0.4558,0.4568,0.4599,0.4666,0.4706,0.4754,0.4813,0.4841,0.489,0.4933,0.5006,0.5013,0.505,0.5077,0.5106,0.5138,0.511,0.5112,0.5114,0.5201,0.5196,0.5202,0.515,0.5151,0.5152,0.5196,0,0.4509,0.4595,0.463,0.47,0.4746,0.4775,0.4817,0.4863,0.4896,0.4941,0.4978,0.5029,0.5034,0.5056,0.5087,0.5128,0.5157,0.5125,0.5191,0.5193,0.5176,0.521,0.5205,0.5244,0.5203,0.5204,0.5204,0,0.4566,0.4614,0.4688,0.4749,0.477,0.4807,0.4864,0.4906,0.4959,0.4981,0.5021,0.5046,0.5099,0.5093,0.5167,0.5145,0.5174,0.5198,0.52,0.5209,0.5201,0.522,0.5258,0.5263,0.5214,0.5214,0.5213,0,0.4571,0.4655,0.471,0.4736,0.4809,0.4834,0.4866,0.4918,0.4951,0.5001,0.5023,0.5079,0.511,0.5154,0.5193,0.5185,0.5264,0.5261,0.5284,0.5283,0.53,0.5299,0.5343,0.5318,0.5318,0.5317,0.5317,0,0.4611,0.4656,0.4713,0.4748,0.4798,0.4838,0.4888,0.4922,0.4968,0.501,0.5038,0.5077,0.5127,0.5173,0.5204,0.5261,0.5275,0.5295,0.5303,0.5292,0.529,0.5313,0.5311,0.5319,0.5319,0.5318,0.5318,0,0.4627,0.4667,0.4729,0.4792,0.4809,0.4843,0.4898,0.4933,0.4966,0.5019,0.5033,0.5087,0.5142,0.5185,0.5258,0.5279,0.5339,0.5347,0.532,0.5324,0.5345,0.5343,0.5407,0.5417,0.5384,0.5384,0.5384,0,0.465,0.4684,0.475,0.4779,0.481,0.4857,0.4891,0.4931,0.4965,0.5028,0.5055,0.5112,0.516,0.5247,0.5293,0.5348,0.5359,0.5377,0.5367,0.5356,0.536,0.5357,0.5361,0.5379,0.5379,0.5379,0.5379,0,0.4687,0.4704,0.4751,0.4804,0.4843,0.4887,0.4932,0.4955,0.5004,0.5041,0.5096,0.5133,0.5206,0.5262,0.5322,0.5356,0.5376,0.5381,0.539,0.538,0.5363,0.5373,0.5324,0.538,0.538,0.538,0.538,0.538,0.4707,0.4739,0.479,0.4841,0.4878,0.492,0.4955,0.4992,0.5039,0.51,0.5122,0.5179,0.5232,0.5314,0.5348,0.5395,0.5396,0.5408,0.5411,0.5414,0.5413,0.5355,0.5406,0.5406,0.5406,0.5406,0.5406,0,0.4746,0.478,0.4826,0.4887,0.4927,0.494,0.499,0.5023,0.5073,0.512,0.5165,0.5229,0.5284,0.5333,0.539,0.5418,0.5428,0.5431,0.543,0.5438,0.5408,0.5395,0.5422,0.5422,0.5422,0.5422,0.5422,0.5422,0.4771,0.4825,0.4849,0.4923,0.4957,0.5012,0.504,0.5078,0.5116,0.5185,0.523,0.5261,0.5309,0.537,0.542,0.5434,0.5454,0.5455,0.547,0.5442,0.544,0.5438,0.5426,0.5458,0.5458,0.5496,0.5496,0.5497]}]]